TIANQI 26 (59910 NORAD) Tracking and Keplerian Element Data

This shows tracking and keplerian element data for the satellite.

Feedback or suggestion? Click here.




ElementValue
Catalog59910
NameTIANQI 26
Epoch Orbit135
Epoch Day159.8873028
Epoch Year2024
RAAN312.4841
Inclination44.9753
Eccentricity0.0011809
Argument of Perigee350.7334
Mean Anonmoly171.3409
Mean Motion14.1439445
Decay Rate3.227E-05
L11 59910U 24102B 24159.88730280 .00003227 00000+0 17407-2 0 9994
L22 59910 44.9753 312.4841 0011809 350.7334 171.3409 14.14394450 1354



Live tracking and technical data element details for TIANQI 26 (NORAD 59910). TIANQI 26 can be tracked NOW for your location showing map with azimuth and elevation plus other details from your city location.







IsCatalogInMostPopularTable: catalog: 59910, numindb: 11
Update: records affected: 1



GetName: 59910 TIANQI 26

Hit Count: updated at: Wed, 24 Jul 2024 23:43:04 GMT